[[{"header":{"parameterUnit":"m.s-1","parameterCategory":1,"la1":30.2991,"la2":30.254,"lo1":-89.0895,"lo2":-89.0444,"dy":0.0017,"dx":0.0017,"nx":28,"ny":28,"refTime":"2023-08-21T09:00:00:Z","depth":0,"parameterNumber":2,"parameterNumberName":"U-component_of_WINDS"},"data":[0,0,0,0,0,0,0,0,0,0,0,0,0,0,0,0,0,0,0,0,0,0,0,0,0,0,0,0,0,0,0,0,0,0,0,0,0,0,0,0,0,0,0,0,0,0,0,0,0,0,0,0,0,0,0,0,0,0,-5.1502,-5.1502,0,-5.1472,-5.1471,-5.1471,-5.1334,-5.1331,-5.1328,-5.1325,-5.1295,-5.1298,-5.13,0,0,0,0,0,0,0,0,0,0,0,0,0,-5.1444,-5.1446,-5.1502,-5.1502,-5.1501,-5.1472,-5.1471,-5.1471,-5.1335,-5.1331,-5.1327,-5.1323,-5.1295,-5.1297,-5.13,0,0,0,0,0,0,0,0,0,0,0,0,0,-5.1447,-5.1447,-5.1502,-5.143,-5.1423,-5.1472,-5.1471,-5.1471,-5.1336,-5.1331,-5.1326,-5.1322,-5.1294,-5.1297,-5.13,-5.1417,0,0,-5.131,-5.1312,0,0,0,0,0,0,0,0,-5.1447,-5.145,-5.1441,-5.1435,-5.1427,-5.1402,-5.144,-5.1453,-5.1337,-5.1369,-5.1325,-5.1319,-5.1335,-5.1334,-5.1339,-5.1416,-5.1414,-5.1311,-5.1313,-5.1314,-5.1315,0,0,0,0,0,0,0,-5.1447,-5.145,-5.149,-5.1441,-5.1433,-5.14,-5.1395,-5.1442,-5.1379,-5.1366,-5.1356,-5.1354,-5.133,-5.1337,-5.1338,-5.1414,-5.1311,-5.1314,-5.1316,-5.1317,-5.1585,-5.1589,0,0,0,0,0,0,-5.1457,-5.1451,-5.1491,-5.1489,-5.1426,-5.1405,-5.1399,-5.1415,-5.1378,-5.1368,-5.1358,-5.1348,-5.1333,-5.1334,-5.1336,-5.1469,-5.1314,-5.1317,-5.1319,-5.158,-5.1586,-5.1591,0,0,0,0,0,0,-5.1456,-5.1462,-5.1492,-5.1467,-5.1469,-5.1411,-5.143,-5.1417,-5.1423,-5.1373,-5.1361,-5.1376,-5.1329,-5.1331,-5.1398,-5.1466,-5.1319,-5.1322,-5.1573,-5.1581,-5.1589,-5.1738,0,0,0,0,0,0,-5.1455,-5.1463,-5.1505,-5.1469,-5.1471,-5.1554,-5.1434,-5.142,-5.1429,-5.1415,-5.1386,-5.1377,-5.1326,-5.1394,-5.1401,-5.1468,-5.1324,-5.1567,-5.1577,-5.1586,-5.1726,-5.175,-5.1769,0,0,0,0,0,-5.1454,-5.1549,-5.1508,-5.1514,-5.1523,-5.1558,-5.1559,-5.1498,-5.1435,-5.1478,-5.1446,-5.1378,-5.1459,-5.1402,-5.1409,-5.1478,-5.1562,-5.1574,-5.1585,-5.1717,-5.1745,-5.1769,0,0,0,0,0,0,-5.1595,-5.1543,-5.1497,-5.1583,-5.1576,-5.1535,-5.1587,-5.153,-5.1541,-5.1527,-5.1452,-5.1447,-5.1524,-5.1508,-5.1445,-5.1589,-5.1499,-5.1513,-5.1596,-5.1623,-5.1644,-5.1645,-5.1327,0,0,0,0,0,-5.1636,-5.1669,-5.1622,-5.1703,-5.1701,-5.1646,-5.1659,-5.1613,-5.1602,-5.1598,-5.1571,-5.1564,-5.1588,-5.1605,-5.1624,-5.1725,-5.1716,-5.1776,-5.1798,-5.1816,-5.1827,-5.1879,-5.1905,-5.1629,-5.1629,-5.1629,0,0,-5.1721,-5.1697,-5.1722,-5.173,-5.1719,-5.1755,-5.1644,-5.1686,-5.1712,-5.1605,-5.1665,-5.1646,-5.1633,-5.1717,-5.1753,-5.1706,-5.1902,-5.183,-5.1845,-5.1847,-5.1894,-5.192,-5.1943,-5.1637,-5.1636,-5.1634,0,0,-5.1894,-5.188,-5.1945,-5.1937,-5.1921,-5.1884,-5.19,-5.1868,-5.185,-5.191,-5.1831,-5.1861,-5.1904,-5.1898,-5.1901,-5.2074,-5.2012,-5.2083,-5.2194,-5.2246,-5.2267,-5.2286,-5.2347,-5.237,-5.2096,-5.2096,-5.2096,0,-5.2002,-5.2051,-5.1986,-5.2033,-5.2039,-5.1945,-5.2011,-5.2006,-5.1999,-5.2005,-5.1954,-5.2005,-5.199,-5.2071,-5.2114,-5.212,-5.2136,-5.2084,-5.227,-5.2288,-5.2304,-5.2362,-5.2385,-5.2105,-5.2104,-5.2103,-5.2102,0,-5.2184,-5.2221,-5.2275,-5.227,-5.2282,-5.2339,-5.2283,-5.2304,-5.2258,-5.2227,-5.2289,-5.2268,-5.2281,-5.2298,-5.2253,-5.2373,-5.2344,-5.2283,-5.219,-5.234,-5.2393,-5.2414,-5.2117,-5.2114,-5.2111,-5.2109,0,0,-5.2442,-5.2401,-5.2422,-5.2418,-5.2396,-5.2423,-5.2476,-5.2489,-5.2508,-5.2507,-5.2549,-5.2589,-5.2532,-5.2535,-5.249,-5.2535,-5.2673,-5.2467,-5.2466,-5.2505,-5.2803,-5.2848,-5.2874,-5.2633,-5.2637,-5.264,-5.2803,0,-5.2606,-5.2692,-5.2636,-5.2732,-5.2765,-5.2677,-5.2724,-5.2716,-5.2689,-5.2713,-5.2683,-5.2712,-5.2635,-5.2636,-5.2678,-5.2647,-5.2731,-5.2635,-5.2671,-5.2673,-5.2674,-5.2901,-5.2949,-5.3104,-5.2823,-5.2827,-5.2829,0,-5.2807,-5.2814,-5.2914,-5.2886,-5.2897,-5.294,-5.2947,-5.2972,-5.2961,-5.2938,-5.2944,-5.2887,-5.2938,-5.2849,-5.2918,-5.2854,-5.2866,-5.2854,-5.2859,-5.2857,-5.2758,-5.2905,-5.3152,-5.3175,-5.2861,-5.2859,-5.2856,0,-5.2983,-5.3019,-5.3082,-5.3082,-5.3051,-5.3083,-5.3072,-5.3057,-5.3068,-5.3076,-5.3082,-5.3096,-5.3103,-5.3116,-5.3065,-5.3005,-5.3141,-5.3048,-5.3123,-5.3124,-5.3153,-5.3151,-5.3404,-5.3165,-5.3165,-5.3164,-5.3164,0,-5.317,-5.3234,-5.3161,-5.32,-5.327,-5.3205,-5.3276,-5.3256,-5.3244,-5.3278,-5.3204,-5.3238,-5.317,-5.3197,-5.3158,-5.3221,-5.3225,-5.3208,-5.3197,-5.3213,-5.3215,-5.3218,-5.3205,-5.317,-5.3169,-5.3168,-5.3167,0,-5.3377,-5.3331,-5.3394,-5.336,-5.3353,-5.3406,-5.3377,-5.3412,-5.3381,-5.3426,-5.3432,-5.3384,-5.3412,-5.3364,-5.3386,-5.336,-5.3447,-5.342,-5.3451,-5.3442,-5.3519,-5.3512,-5.378,-5.3811,-5.3555,-5.3558,-5.356,0,-5.3498,-5.3545,-5.3517,-5.3534,-5.3527,-5.3556,-5.3567,-5.3507,-5.3522,-5.3515,-5.3551,-5.3574,-5.3588,-5.3638,-5.3605,-5.3622,-5.3594,-5.3687,-5.3595,-5.3611,-5.3593,-5.359,-5.3594,-5.3704,-5.3707,-5.371,-5.3712,0,-5.3718,-5.3693,-5.3712,-5.3724,-5.3739,-5.3746,-5.3747,-5.3766,-5.3702,-5.3723,-5.3751,-5.3763,-5.3786,-5.3809,-5.3819,-5.3807,-5.375,-5.3742,-5.3759,-5.3776,-5.3791,-5.3782,-5.3499,-5.3735,-5.3733,-5.3731,-5.373,-5.3729,-5.3884,-5.3922,-5.3907,-5.3931,-5.3926,-5.393,-5.3961,-5.3934,-5.3956,-5.397,-5.3934,-5.3971,-5.396,-5.3967,-5.3963,-5.3991,-5.395,-5.3976,-5.3982,-5.3989,-5.4001,-5.3789,-5.3993,-5.3992,-5.3991,-5.3991,-5.399,0,-5.4098,-5.4085,-5.4108,-5.4112,-5.4131,-5.4076,-5.4075,-5.4095,-5.4128,-5.4123,-5.4139,-5.4172,-5.4194,-5.4164,-5.4181,-5.421,-5.4184,-5.4216,-5.4213,-5.4211,-5.4037,-5.4019,-5.4237,-5.4237,-5.4237,-5.4237,-5.4237,-5.4237,-5.4212,-5.4272,-5.4246,-5.4305,-5.4291,-5.4326,-5.433,-5.4333,-5.4329,-5.4368,-5.4386,-5.4367,-5.4352,-5.4368,-5.4387,-5.4377,-5.4386,-5.4428,-5.441,-5.4247,-5.4223,-5.42,-5.4182,-5.4431,-5.4431,-5.458,-5.4581,-5.4582]},{"header":{"parameterUnit":"m.s-1","parameterCategory":1,"la1":30.2991,"la2":30.254,"lo1":-89.0895,"lo2":-89.0444,"dy":0.0017,"dx":0.0017,"nx":28,"ny":28,"refTime":"2023-08-21T09:00:00:Z","depth":0,"parameterNumber":3,"parameterNumberName":"V-component_of_WINDS"},"data":[0,0,0,0,0,0,0,0,0,0,0,0,0,0,0,0,0,0,0,0,0,0,0,0,0,0,0,0,0,0,0,0,0,0,0,0,0,0,0,0,0,0,0,0,0,0,0,0,0,0,0,0,0,0,0,0,0,0,2.5298,2.5298,0,2.5377,2.5378,2.5379,2.5437,2.5437,2.5438,2.5438,2.5515,2.5516,2.5518,0,0,0,0,0,0,0,0,0,0,0,0,0,2.5191,2.5192,2.5297,2.5298,2.5299,2.5377,2.5378,2.5379,2.5437,2.5437,2.5438,2.5439,2.5514,2.5516,2.5518,0,0,0,0,0,0,0,0,0,0,0,0,0,2.525,2.5193,2.5297,2.5338,2.5342,2.5377,2.5378,2.538,2.5437,2.5437,2.5438,2.5439,2.5514,2.5516,2.5518,2.5518,0,0,2.5525,2.5526,0,0,0,0,0,0,0,0,2.5247,2.5254,2.5331,2.5335,2.534,2.5398,2.5369,2.5426,2.5436,2.54,2.5438,2.5439,2.5475,2.5481,2.5494,2.5522,2.5525,2.5526,2.5527,2.5528,2.5529,0,0,0,0,0,0,0,2.5243,2.5251,2.5329,2.5332,2.5337,2.535,2.536,2.538,2.5432,2.5404,2.5408,2.5417,2.5478,2.5491,2.5496,2.5526,2.5526,2.5528,2.5529,2.553,2.5559,2.5558,0,0,0,0,0,0,2.5233,2.5247,2.5326,2.5331,2.5294,2.5352,2.5362,2.5378,2.5432,2.5441,2.5416,2.5419,2.5487,2.5493,2.5499,2.5503,2.5528,2.553,2.5532,2.556,2.5559,2.5558,0,0,0,0,0,0,2.523,2.5239,2.5323,2.5291,2.5302,2.5353,2.5371,2.538,2.5394,2.5442,2.5451,2.5421,2.5488,2.5496,2.5514,2.5506,2.5531,2.5534,2.556,2.5559,2.5558,2.551,0,0,0,0,0,0,2.5227,2.5238,2.5239,2.529,2.5304,2.5337,2.537,2.5381,2.5398,2.5403,2.5449,2.5457,2.5489,2.551,2.5516,2.551,2.5535,2.5561,2.556,2.5559,2.5513,2.5508,2.5504,0,0,0,0,0,2.5223,2.5221,2.5239,2.5248,2.5307,2.5337,2.5344,2.5383,2.5397,2.5398,2.543,2.5456,2.5506,2.5511,2.5518,2.5513,2.5562,2.556,2.5559,2.5515,2.5509,2.5504,0,0,0,0,0,0,2.5165,2.5228,2.5249,2.5264,2.5295,2.5347,2.5349,2.5375,2.5401,2.5404,2.5449,2.5459,2.5472,2.5495,2.5499,2.5517,2.5537,2.5537,2.5501,2.5496,2.5491,2.5485,2.5537,0,0,0,0,0,2.5155,2.5176,2.5229,2.5237,2.5252,2.5298,2.5312,2.5339,2.5372,2.5385,2.5418,2.5448,2.5471,2.5485,2.5508,2.5517,2.5527,2.5517,2.5512,2.5508,2.5507,2.5514,2.551,2.5553,2.5553,2.5553,0,0,2.5132,2.5169,2.5179,2.5226,2.5253,2.5273,2.5308,2.5327,2.5341,2.5388,2.5407,2.5432,2.5469,2.5482,2.549,2.5501,2.5498,2.5506,2.5503,2.5504,2.5512,2.5508,2.5504,2.5552,2.5552,2.5553,0,0,2.5101,2.5132,2.5142,2.5169,2.5211,2.5242,2.5245,2.5293,2.5312,2.5333,2.5369,2.5386,2.5425,2.545,2.5467,2.5448,2.5473,2.5454,2.543,2.5436,2.5433,2.543,2.5423,2.542,2.5454,2.5453,2.5453,0,2.5067,2.51,2.5143,2.5161,2.5181,2.5226,2.5237,2.526,2.5307,2.5319,2.5332,2.5382,2.541,2.543,2.5426,2.5438,2.5442,2.5449,2.543,2.5428,2.5426,2.542,2.5417,2.5451,2.5451,2.5451,2.5452,0,2.5056,2.5078,2.5081,2.5128,2.5148,2.5161,2.5206,2.5221,2.5247,2.5276,2.5297,2.5333,2.5365,2.5372,2.5396,2.5396,2.5402,2.5422,2.5443,2.5418,2.5413,2.5411,2.5447,2.5448,2.5449,2.545,0,0,2.4989,2.5062,2.5062,2.5084,2.5135,2.5152,2.5168,2.5202,2.5213,2.5244,2.5258,2.5291,2.5311,2.533,2.5358,2.5364,2.5347,2.5383,2.5385,2.5375,2.5349,2.5333,2.533,2.5364,2.5364,2.5364,2.5346,0,2.4966,2.4999,2.5039,2.5058,2.5079,2.5123,2.5137,2.5169,2.5197,2.5218,2.5249,2.5271,2.5295,2.5308,2.5315,2.5347,2.5342,2.5349,2.5377,2.5377,2.5365,2.5327,2.5311,2.5292,2.5344,2.5344,2.5344,0,2.4942,2.4974,2.4995,2.5045,2.5056,2.5067,2.5102,2.5122,2.5159,2.518,2.5203,2.5234,2.5252,2.5272,2.5298,2.5302,2.5316,2.5333,2.5334,2.5337,2.5358,2.5329,2.5287,2.5284,2.5341,2.5341,2.5342,0,2.4892,2.4939,2.4958,2.4976,2.5035,2.5042,2.5067,2.5105,2.5123,2.5153,2.5165,2.5196,2.5213,2.5236,2.5274,2.5285,2.5295,2.5319,2.5312,2.5311,2.5311,2.531,2.527,2.5321,2.5321,2.5321,2.5321,0,2.4861,2.4872,2.4936,2.4948,2.4962,2.5008,2.502,2.5049,2.5083,2.51,2.514,2.5155,2.5205,2.5225,2.5255,2.5272,2.5279,2.5295,2.5303,2.5292,2.5289,2.53,2.5302,2.532,2.532,2.5321,2.5321,0,2.4806,2.4849,2.4873,2.4928,2.4943,2.495,2.4997,2.5009,2.5041,2.5062,2.507,2.5119,2.5145,2.5186,2.5224,2.5245,2.5256,2.5269,2.5244,2.5249,2.524,2.524,2.5204,2.5202,2.5254,2.5254,2.5253,0,2.4783,2.4793,2.485,2.4866,2.489,2.4914,2.4933,2.498,2.4998,2.5042,2.5049,2.508,2.5106,2.5147,2.5185,2.5214,2.5228,2.5214,2.5232,2.5221,2.5227,2.5226,2.5227,2.5208,2.5208,2.5207,2.5207,0,2.4738,2.476,2.4787,2.4822,2.4845,2.4875,2.4906,2.4916,2.4969,2.4988,2.5017,2.5038,2.5078,2.5107,2.5143,2.5167,2.5195,2.5201,2.5201,2.5188,2.5174,2.5181,2.5231,2.5201,2.5201,2.5202,2.5202,2.5202,2.4698,2.471,2.4752,2.4782,2.4811,2.484,2.4855,2.4889,2.4915,2.4953,2.4978,2.5006,2.5044,2.5095,2.5118,2.5139,2.5151,2.5151,2.5151,2.515,2.5146,2.5171,2.5146,2.5146,2.5146,2.5146,2.5146,0,2.4655,2.4685,2.4712,2.4756,2.4779,2.4807,2.4843,2.486,2.4885,2.4919,2.4945,2.4978,2.5008,2.5049,2.5081,2.509,2.5104,2.5097,2.5096,2.5102,2.5133,2.513,2.5085,2.5085,2.5086,2.5086,2.5086,2.5086,2.4635,2.4656,2.4683,2.4719,2.4749,2.4778,2.4797,2.4823,2.4851,2.4887,2.4913,2.494,2.4977,2.5013,2.504,2.5052,2.5061,2.505,2.5065,2.5094,2.5099,2.5104,2.5102,2.5052,2.5052,2.5032,2.5032,2.5032]}]]